Haleyville, AL

11:32 PM CDT on September 20, 2017 (GMT -0500)
Haleyville

Weather History for K1M4 - February, 2013

Change the Weather History Date:

Wednesday, February 6, 2013

  Actual Average (KJFX) Record (KJFX)
Temperature  
Mean Temperature 48 °F -  
Max Temperature 65 °F 53 °F 73 °F (2013)
Min Temperature 30 °F 29 °F 15 °F (1966)
Degree Days  
Heating Degree Days 18    
Moisture  
Dew Point 35 °F    
Average Humidity 81    
Maximum Humidity 100    
Minimum Humidity 27    
Precipitation  
Precipitation 0.00 in - - ()
Sea Level Pressure  
Sea Level Pressure 30.15 in    
Wind  
Wind Speed 1 mph (ENE)    
Max Wind Speed 6 mph    
Max Gust Speed -    
Visibility 5 miles    
Events Fog    
Averages and records for this station are not official NWS values.
T = Trace of Precipitation, MM = Missing Value Source: NWS Daily Summary

Daily Weather History Graph

Daily Weather History Graph

Search for Another Location

Airport or City:

Trip Planner

Search our weather history database for the weather conditions in past years. The results will help you decide how hot, cold, wet, or windy it might be!

Date:

Astronomy

Feb. 06, 2013 Rise Set
Actual Time 6:43 AM CST 5:25 PM CST
Civil Twilight 6:17 AM CST 5:51 PM CST
Nautical Twilight 5:47 AM CST 6:21 PM CST
Astronomical Twilight 5:18 AM CST 6:50 PM CST
Moon 3:22 AM CST (2/6) 1:48 PM CST (2/6)
Length of Visible Light 11h 34m
Length of Day
10h 41m
Waning Crescent, 17% of the Moon is Illuminated
Feb 6
Waning Crescent
Feb 10
New
Feb 17
First Quarter
Feb 25
Full
Mar 4
Last Quarter

Hourly Weather History & Observations

Time (CST) Temp. Windchill Dew Point Humidity Pressure Visibility Wind Dir Wind Speed Gust Speed Precip Events Conditions
12:10 AM 37.4 °F - 37.4 °F 100% 30.09 in 1.2 mi Calm Calm - N/A   Clear
12:12 AM 37.4 °F - 37.4 °F 100% 30.09 in 0.8 mi Calm Calm - N/A   Clear
12:16 AM 37.4 °F - 37.4 °F 100% 30.09 in 0.2 mi Calm Calm - N/A Fog Fog
12:26 AM 37.4 °F - 37.4 °F 100% 30.09 in 0.2 mi Calm Calm - N/A Fog Fog
12:33 AM 37.4 °F - 37.4 °F 100% 30.09 in 0.2 mi Calm Calm - N/A Fog Fog
12:45 AM 35.6 °F - 35.6 °F 100% 30.09 in 0.5 mi Calm Calm - N/A Fog Fog
12:49 AM 37.4 °F - 37.4 °F 100% 30.09 in 0.8 mi Calm Calm - N/A   Mostly Cloudy
12:56 AM 36.9 °F 34.3 °F 36.9 °F 100% 30.13 in 0.5 mi South 3.5 mph - N/A Fog Fog
1:09 AM 35.6 °F - 35.6 °F 100% 30.09 in 0.2 mi Calm Calm - N/A Fog Fog
1:41 AM 35.6 °F - 35.6 °F 100% 30.10 in 0.2 mi Calm Calm - N/A Fog Fog
1:56 AM 34.9 °F - 34.9 °F 100% 30.14 in 0.2 mi Calm Calm - N/A Fog Fog
2:24 AM 33.8 °F - 33.8 °F 100% 30.10 in 0.5 mi Calm Calm - N/A Fog Fog
2:34 AM 35.6 °F - 35.6 °F 100% 30.10 in 0.2 mi Calm Calm - N/A Fog Fog
2:42 AM 33.8 °F - 33.8 °F 100% 30.11 in 0.2 mi Calm Calm - N/A Fog Fog
2:56 AM 34.0 °F - 34.0 °F 100% 30.14 in 0.2 mi Calm Calm - N/A Fog Fog
4:03 AM 33.8 °F - 33.8 °F 100% 30.13 in 0.2 mi Calm Calm - N/A Fog Fog
4:30 AM 32.0 °F - 32.0 °F 100% 30.13 in 0.5 mi Calm Calm - N/A Fog Fog
4:36 AM 32.0 °F 28.7 °F 32.0 °F 100% 30.13 in 1.0 mi NE 3.5 mph - N/A   Clear
4:39 AM 32.0 °F - 32.0 °F 100% 30.14 in 1.5 mi Calm Calm - N/A   Clear
4:41 AM 30.2 °F - 30.2 °F 100% 30.14 in 3.0 mi Calm Calm - N/A   Clear
4:56 AM 31.1 °F - 31.1 °F 100% 30.17 in 2.5 mi Calm Calm - N/A   Clear
5:04 AM 30.2 °F - 30.2 °F 100% 30.14 in 3.0 mi Calm Calm - N/A   Clear
5:56 AM 31.1 °F 27.7 °F 31.1 °F 100% 30.19 in 6.0 mi ENE 3.5 mph - N/A   Clear
6:56 AM 32.0 °F 28.7 °F 32.0 °F 100% 30.20 in 8.0 mi NNE 3.5 mph - N/A   Clear
7:12 AM 32.0 °F - 32.0 °F 100% 30.17 in 2.0 mi Calm Calm - N/A   Clear
7:56 AM 39.9 °F - 39.9 °F 100% 30.22 in 2.0 mi Calm Calm - N/A   Clear
8:06 AM 42.8 °F - 42.8 °F 100% 30.19 in 6.0 mi Calm Calm - N/A   Clear
8:56 AM 50.9 °F - 43.0 °F 74% 30.22 in 10.0 mi ENE 5.8 mph - N/A   Clear
9:56 AM 54.9 °F - 37.9 °F 53% 30.24 in 10.0 mi Variable 5.8 mph - N/A   Clear
10:56 AM 59.9 °F - 36.9 °F 42% 30.25 in 10.0 mi South 4.6 mph - N/A   Clear
11:56 AM 61.9 °F - 34.0 °F 35% 30.22 in 10.0 mi Variable 3.5 mph - N/A   Clear
12:56 PM 64.9 °F - 32.0 °F 29% 30.20 in 10.0 mi Variable 3.5 mph - N/A   Clear
1:56 PM 65.8 °F - 31.1 °F 27% 30.17 in 10.0 mi Variable 3.5 mph - N/A   Clear
2:56 PM 64.9 °F - 34.0 °F 32% 30.17 in 9.0 mi South 5.8 mph - N/A   Clear
3:56 PM 63.9 °F - 34.0 °F 33% 30.17 in 10.0 mi East 5.8 mph - N/A   Clear
4:56 PM 61.9 °F - 34.0 °F 35% 30.14 in 10.0 mi NE 4.6 mph - N/A   Clear
5:56 PM 54.0 °F - 36.0 °F 51% 30.14 in 10.0 mi NE 3.5 mph - N/A   Clear
6:56 PM 50.0 °F - 36.9 °F 61% 30.17 in 10.0 mi Calm Calm - N/A   Clear
7:56 PM 48.9 °F - 38.8 °F 68% 30.18 in 10.0 mi Calm Calm - N/A   Clear
8:56 PM 48.9 °F - 37.9 °F 66% 30.16 in 10.0 mi Calm Calm - N/A   Clear
9:56 PM 48.9 °F - 36.9 °F 63% 30.15 in 10.0 mi Calm Calm - N/A   Clear
10:56 PM 50.9 °F - 34.9 °F 54% 30.12 in 10.0 mi ENE 5.8 mph - N/A   Clear
11:56 PM 50.9 °F - 36.0 °F 57% 30.14 in 10.0 mi Calm Calm - N/A   Clear